Regional Weather Roundup
Issued by NWS Lake Charles, LA

Home | Current Version | Previous Version | Text Only | Print | Product List | Glossary On
Versions: 1 2 3 4 5 6 7 8 9 10 11 12 13 14 15 16 17 18 19 20 21 22 23 24 25 26 27
000
ASUS44 KLCH 010410
RWRLCH
REGIONAL WEATHER ROUNDUP
NATIONAL WEATHER SERVICE LAKE CHARLES LA
1100 PM CDT SAT JUL 31 2021

Note: "fair" indicates few or no clouds below 12,000 feet with no
significant weather and/or obstructions to visibility.


ACROSS SOUTHEAST TEXAS

CITY           SKY/WX    TMP DP  RH WIND       PRES   REMARKS
BEAUMONT       CLEAR     80  79  96 SW5       29.98S
BEAUMONT CITY  FAIR      82  78  90 S3        29.99R
ORANGE         CLEAR     83  76  79 CALM      30.00S
JASPER         CLEAR     81  77  89 CALM      29.99S
$$

ACROSS CENTRAL LOUISIANA

CITY           SKY/WX    TMP DP  RH WIND       PRES   REMARKS
LEESVILLE      CLEAR     83  77  81 S3        29.99R
FULLERTON      FAIR      81  76  84 CALM      29.97R
ALEXANDRIA INT PTCLDY    82  76  81 SE7       29.98R
ESLER FIELD    PTCLDY    80  75  84 S5        29.99R
DERIDDER       NOT AVBL
OAKDALE        PTCLDY    79  73  83 CALM      30.00R
OPELOUSAS      FAIR      75  72  89 CALM      30.00S
$$

ACROSS SOUTHWEST AND SOUTH CENTRAL LOUISIANA

CITY           SKY/WX    TMP DP  RH WIND       PRES   REMARKS
DEQUINCY         N/A     81  77  86 CALM      30.00R
SULPHUR        CLEAR     83  78  86 SW5       30.00S
LAKE CHARLES   CLEAR     83  79  88 SW5       30.00R
CHENNAULT INT  CLEAR     84  77  78 SW6       30.00R
JENNINGS       FAIR     N/A N/A N/A MISG      30.01R
LAFAYETTE      PTCLDY    77  75  93 CALM      30.00S
NEW IBERIA     CLEAR     78  77  96 S7        30.00F
ABBEVILLE      FAIR      78  74  87 S6        30.00F
PATTERSON      CLEAR     77  77 100 CALM      30.02S
SALT POINT       N/A     80  76  87 CALM      30.00S
$$

SELECTED SITES ACROSS THE REGION

CITY           SKY/WX    TMP DP  RH WIND       PRES   REMARKS
HOUSTON BUSH   PTCLDY    86  74  67 SW8       29.99S
HOUSTON HOBBY  MOCLDY    84  75  74 SW8       29.99S
GALVESTON      CLEAR     86  77  74 SW10      30.00F
COLLEGE STAT   CLEAR     85  75  72 S7        29.99S
CONROE         PTCLDY    85  75  72 SW6       30.00S
HUNTSVILLE     MOCLDY    86  75  69 S7        30.00S
LUFKIN         CLEAR     84  76  76 SW5       29.99S
SHREVEPORT     CLEAR     86  75  69 S5        29.96F
MONROE         CLEAR     82  79  90 CALM      29.96F
NATCHEZ MS     PTCLDY    80  76  87 S6        30.00S
BATON ROUGE    MOCLDY    75  75 100 MISG      30.00S
N.O. INTL ARPT PTCLDY    79  75  87 S5        30.00F
SLIDELL        CLEAR     78  75  90 CALM      29.99F
$$

MARINE REPORTS

STATION/POSITION TIME  SKY/WX   TEMP    WIND        PRES    VSBY
                                AIR SEA DIR/SP/G
                 (UTC)          (F)     (DEG/KT/KT) (MB)    (MI)
BUOY 30 S HIGH I 0350            86 87  220/ 12/ 16 1015.3F
WVE H/P(F/S)=  1/ 5

SEA RIM ST PARK  NOT AVBL
PORT ARTHUR      0330            84 87  210/  6/  9 1015.4R
TEXAS POINT      0330            85 89  220/ 10/ 13 1014.4R
CALCASIEU PASS   0330            86 89  240/ 10/ 13 1013.9
LK CHARLES BEACH 0330            85 88              1015.7R
MARSH ISLAND     NOT AVBL
FRESH WATER LOCK 0330                   200/  3/  4   N/A
AMERADA PASS     0330            80 87   70/  2/  4 1016.6R
$$



USA.gov is the U.S. government's official web portal to all federal, state and local government web resources and services.